Location: Beckenweiler
(47.8256°N, 9.4825°E)
Time: 12:35:25
(UTC+00:00)

Daily predictions for brighter satellites

Satellite Brightness Start Highest point End
(mag) Time Altitude Azimuth Time Altitude Azimuth Time Altitude Azimuth
CZ-4C R/B 3.0 15:53:36 10° NW 16:00:18 62° NE 16:08:42 10° SE
Cosmos 2266 Rocket 4.4 15:56:08 10° N 16:01:54 40° ENE 16:07:33 10° SE
CBERS-1 4.0 15:59:15 10° SSE 16:04:19 67° ENE 16:09:25 10° N
SMAP 3.5 16:01:29 10° SE 16:05:48 40° ENE 16:10:09 10° N
Cosmos 2297 Rocket 2.2 16:04:02 10° NNW 16:09:44 76° ENE 16:15:23 10° SSE
Landsat 7 4.4 16:06:27 10° SE 16:10:39 35° ENE 16:14:52 10° N
Cosmos 1626 Rocket 3.6 16:10:10 10° N 16:14:31 87° W 16:18:48 10° S
Meteor 1-28 Rocket 2.9 16:12:04 10° NNE 16:15:23 59° ESE 16:18:40 10° S
NOSS 2-2 (C) 4.3 16:13:43 10° WSW 16:16:29 27° NW 16:19:07 10° NNE
Cosmos 1315 Rocket 4.3 16:18:23 10° SW 16:21:54 34° WNW 16:25:26 10° N
Cosmos 1606 Rocket 4.4 16:19:21 10° SSE 16:23:13 31° E 16:27:07 10° NNE
BlueWalker 3 4.2 16:20:31 10° W 16:23:37 27° SW 16:26:43 10° SSE
ATLAS CENTAUR R/B 2.6 16:23:02 10° NW 16:26:01 35° WSW 16:28:53 10° S
Thor Agena Rocket 3.5 16:21:33 10° SSE 16:26:45 77° ENE 16:31:55 10° NNW
Cosmos 1503 Rocket 4.1 16:22:28 10° S 16:27:36 60° ESE 16:32:43 10° NNE
Cosmos 2219 4.2 16:24:36 10° N 16:29:20 25° NE 16:34:02 10° E
CENTAUR R/B 3.6 16:23:58 10° W 16:29:31 37° NNW 16:36:25 10° NE
Cosmos 1484 Rocket 3.4 16:28:02 10° S 16:31:28 54° W 16:34:55 10° NNW
Cosmos 1544 Rocket 3.8 16:27:58 10° SSW 16:32:21 73° W 16:36:48 10° N
USA 290 2.8 16:30:16 10° NNW 16:33:30 62° WSW 16:36:42 10° SSE
AQUARIUS 4.5 16:29:39 10° SE 16:33:46 41° ENE 16:37:56 10° N
SL-16 R/B 2.7 16:27:34 10° NNE 16:33:49 78° WNW 16:40:00 10° SSW
GEOS 3 Rocket 3.8 16:28:55 10° NE 16:34:17 66° SE 16:39:37 10° SSW
Cosmos 1980 Rocket 3.3 16:30:13 10° SSE 16:34:35 23° ESE 16:37:57 14° ENE
Lacrosse 5 rocket 2.7 16:32:08 10° WNW 16:35:10 23° NNW 16:37:41 12° NE
Cosmos 1844 Rocket 4.4 16:33:29 10° N 16:35:59 13° NNE 16:37:20 12° NE
Cosmos 1354 Rocket 4.2 16:32:10 10° S 16:37:14 51° ESE 16:42:19 10° NNE
Meteor 1-25 Rocket 4.3 16:33:46 10° N 16:39:34 64° ENE 16:45:16 10° SSE
Meteor 1-5 Rocket 4.5 16:34:32 10° N 16:39:36 41° ENE 16:44:45 10° SE
Lacrosse 4 Rocket 3.8 16:37:30 10° WNW 16:39:44 14° NW 16:41:57 10° N
BREEZE M DEB (TANK) 2.3 16:37:42 10° SW 16:40:12 41° SSE 16:41:17 21° E
CORIOLIS 4.1 16:35:38 10° SSE 16:40:58 88° ENE 16:46:21 10° NNW
Cosmos 1777 Rocket 4.0 16:38:32 10° SSW 16:43:48 88° WNW 16:49:04 10° NNE
IRIDIUM 104 4.3 16:39:03 10° N 16:44:19 80° E 16:49:32 10° S
Cosmos 2263 Rocket 2.6 16:39:14 10° NNW 16:44:36 41° NE 16:49:57 10° ESE
Cosmos 1726 Rocket 4.1 16:42:45 10° SSE 16:47:05 41° E 16:51:24 10° NNE
CZ-2D R/B 2.6 16:44:38 10° SSE 16:47:43 61° ENE 16:50:50 10° N
USA 238 DEB 4.2 16:44:20 10° S 16:49:43 34° ESE 16:53:47 18° ENE
USA 238 4.2 16:44:27 10° S 16:49:50 34° ESE 16:53:52 18° ENE
Okean 1-7 Rocket 3.5 16:47:09 10° N 16:51:33 84° E 16:55:55 10° S
ERS-1 4.4 16:48:17 10° SSE 16:53:15 69° ENE 16:58:12 10° N
IRIDIUM 114 4.4 16:48:11 10° N 16:53:27 86° W 16:58:40 10° S
Cosmos 1602 Rocket 4.0 16:49:07 10° NNW 16:53:28 64° W 16:57:45 10° S
Cosmos 1461 3.0 16:51:42 10° SW 16:55:35 66° NW 16:58:30 17° NNE
Cosmos 1933 3.1 16:53:21 10° S 16:57:10 75° E 17:01:00 10° NNE
USA 215 3.9 16:53:49 17° ENE 16:58:21 40° N 17:04:22 10° WNW
IRS-1C 4.1 16:53:38 10° SSE 16:58:57 90° NW 17:04:19 10° NNW
YAOGAN 1 3.3 16:56:06 10° SE 16:59:48 30° ENE 17:03:31 10° N
Cosmos-2242 4.0 16:56:30 10° SE 16:59:55 24° E 17:00:12 24° E
Cosmos 2227 Rocket 2.1 16:55:29 10° NNW 17:01:10 83° ENE 17:06:49 10° SSE
BREEZE-M DEB (TANK) 4.0 16:57:46 10° SSW 17:01:18 22° SSE 17:02:21 18° SE
SKYMED 2 4.2 16:58:49 19° NE 17:01:21 35° E 17:05:19 10° SSE
NOSS 2-3 (E) 3.4 16:58:32 10° SSW 17:02:05 49° SE 17:03:38 29° ENE
NOSS 2-3 (D) 3.5 16:59:13 10° SSW 17:02:45 45° SE 17:04:14 29° ENE
SJ-12 3.7 17:00:04 10° SSE 17:03:50 85° WSW 17:07:39 10° NNW
Cosmos 1743 4.4 17:01:01 10° NNW 17:03:54 29° W 17:06:45 10° SSW
NOSS 7 (H) 4.5 17:01:45 10° NW 17:04:40 65° SW 17:07:54 10° SSE
Cosmos 2151 4.1 17:03:32 10° NNW 17:07:32 45° W 17:11:30 10° SSW
Cosmos 1655 Rocket 3.9 17:07:18 10° N 17:13:34 72° E 17:19:46 10° SSE
Cosmos 1697 Rocket 2.7 17:08:58 10° SSW 17:14:34 86° WNW 17:19:15 15° NNE
Meteor 2-10 4.2 17:09:28 10° N 17:14:43 51° ENE 17:20:06 10° SSE
Cosmos 990 Rocket 3.9 17:09:44 10° SSW 17:14:51 88° ESE 17:19:09 15° NNE
CZ-4 R/B 4.2 17:11:22 10° SSE 17:15:15 62° ENE 17:19:10 10° N
Cosmos 1867 4.2 17:10:42 10° NW 17:16:05 59° WSW 17:21:24 10° SSE
MOS 1 Rocket 3.5 17:11:38 10° S 17:16:33 83° WSW 17:21:47 10° NNW
Aureole 1 Rocket 3.6 17:13:00 10° S 17:17:13 45° ESE 17:19:37 27° NE
SAR-Lupe-4 4.4 17:13:48 10° S 17:17:16 52° WSW 17:20:46 10° NNW
Cosmos 1953 Rocket 3.5 17:12:54 10° N 17:17:20 68° ENE 17:21:46 10° SSE
ARIANE 5 R/B 3.3 17:19:02 10° S 17:23:58 55° W 17:29:02 10° NNW
Cosmos 1825 Rocket 4.1 17:22:22 10° NNW 17:26:38 58° W 17:30:51 10° S
COSMOS 2455 4.2 17:26:28 10° SSE 17:29:38 20° ESE 17:29:38 20° ESE
NOAA 6 4.2 17:26:35 10° SE 17:31:26 46° ENE 17:36:18 10° N
Cosmos 1680 Rocket 4.4 17:28:05 10° N 17:31:46 29° NE 17:31:46 29° NE
USA 81 3.9 17:29:09 10° N 17:34:26 73° E 17:39:41 10° SSE
CZ-2D R/B 3.3 17:31:03 10° SSE 17:35:15 79° ENE 17:39:25 10° NNW
Radarsat Rocket 4.5 17:28:44 10° SSE 17:36:48 70° ENE 17:44:00 10° NNW
IRAS Rocket 4.1 17:32:22 10° SSE 17:37:46 63° ENE 17:43:11 10° N
Meteor 2-2 Rocket 4.2 17:33:33 10° S 17:39:03 56° E 17:41:51 28° NNE
Gbstr 26 Del rocket 2.5 17:35:17 10° WSW 17:39:17 81° NNW 17:39:37 71° NE
NOSS 3-2 (C) 4.0 17:34:41 10° WSW 17:39:42 47° NW 17:43:16 23° NNE
SPOT 1/Viking Rocket 3.6 17:35:44 10° S 17:40:56 79° WSW 17:46:11 10° NNW
PSLV R/B 3.3 17:38:56 10° SSE 17:43:07 66° NE 17:46:58 10° N
Cosmos 1076 Rocket 4.1 17:40:29 10° NNW 17:44:43 58° W 17:48:56 10° S
SL-19 R/B 4.1 17:41:10 10° SSE 17:46:32 75° ENE 17:52:13 10° NNW
Cosmos 2082 3.6 17:42:45 10° NNW 17:48:28 65° ENE 17:50:41 37° SE
CZ-4C R/B 4.2 17:41:56 10° NW 17:48:44 43° WSW 17:56:50 10° S
COSMO-SKYMED 1 2.3 17:49:13 69° SE 17:49:13 69° SE 17:53:04 10° S
Cosmos 2058 Rocket 2.9 17:45:02 10° S 17:49:30 85° E 17:50:44 48° NNE
SL-16 R/B 4.3 17:55:49 10° SSE 17:56:09 11° SSE 17:56:09 11° SSE
Meteor 2-11 Rocket 4.3 17:54:44 10° N 18:00:52 63° ENE 18:06:57 10° SSE
Nadezhda 2 Rocket 4.3 17:56:26 10° N 18:02:36 84° E 18:08:42 10° S
Meteor 1-26 Rocket 4.0 17:58:00 10° S 18:03:25 89° ESE 18:05:35 38° NNE
Cosmos 1553 Rocket 3.8 18:04:32 10° S 18:10:42 84° E 18:14:51 23° N
Resurs 1-3 4.2 18:07:38 10° S 18:11:51 54° W 18:16:05 10° NNW
Lacrosse 5 rocket 3.6 18:10:19 10° NW 18:11:16 14° NNW 18:11:16 14° NNW
Cosmos 2219 3.4 18:08:17 10° NNW 18:14:00 71° WSW 18:17:57 21° SSE
Cosmos 1980 Rocket 2.5 18:12:29 10° SW 18:18:06 62° WNW 18:19:44 44° N
Cosmos 1844 Rocket 3.8 18:15:53 10° NNW 18:18:59 30° N 18:18:59 30° N
CENTAUR R/B 4.3 18:16:51 10° NW 18:22:22 24° N 18:24:02 23° NNE
Cosmos 2263 Rocket 3.5 18:23:17 10° NW 18:28:28 38° WSW 18:33:40 10° S
Cosmos 1898 Rocket 3.8 18:25:01 10° SW 18:30:06 61° WNW 18:30:11 61° WNW
Cosmos 2369 3.7 18:25:15 10° SSW 18:30:42 79° WSW 18:30:42 79° WSW
YAOGAN 1 4.3 18:31:51 10° SSW 18:35:36 30° W 18:39:23 10° NNW
USA 238 DEB 3.9 18:34:12 10° WSW 18:40:16 58° NW 18:41:13 53° N
USA 238 3.9 18:34:16 10° WSW 18:40:23 59° NW 18:41:19 54° N
USA 215 3.6 18:41:10 52° N 18:41:10 52° N 18:47:00 10° NW
Cosmos 1937 Rocket 4.5 18:43:48 10° SW 18:47:30 43° WSW 18:47:30 43° WSW
COSMOS 2455 4.4 19:10:07 10° SW 19:12:49 28° SW 19:12:49 28° SW
